Flag for Netherlands Weather past 2 weeks in Amersfoort, Netherlands

Now
48 °F

Mostly cloudy.


Feels Like: 42 °F
Forecast: 49 / 55 °F
Wind: 18 mph from Southwest

Location: Deelen

Current Time: Dec 21, 2014 at 9:22:24 PM

Latest Report: Dec 21, 2014 at 8:55 PM


Visibility: N/A

Pressure: 30.15 "Hg

Humidity: 82%

Dew point: 43 °F

Location of AmersfoortLocation

Historic Weather in Amersfoort — Graph

°F

Amersfoort temperature yesterday

Maximum temperature yesterday: 46 °F (at 11:25 AM)
Minimum temperature yesterday: 37 °F (at 8:55 PM)
Average temperature yesterday: 43 °F

Past Weeks' High & Low Weather Summary

 TemperatureHumidityPressure
High54 °F (Dec 18, 1:55 PM)100% (Dec 6, 7:25 PM)30.33 "Hg (Dec 6, 7:25 PM)
Low28 °F (Dec 6, 11:55 PM)66% (Dec 10, 2:25 PM)29.30 "Hg (Dec 12, 11:55 AM)
Average41 °F93%29.90 "Hg
* Reported Dec 6 7:25 PM — Dec 21 7:55 PM, Amersfoort, Weather by CustomWeather, © 2014

Note: Actual official high and low records may vary slightly from our data, if they occured in-between our weather recording intervals... More about our weather records

Advertising

Amersfoort weather history for previous 24 hours

 ConditionsComfort  
Time TempWeatherWind HumidityBarometerVisibility
7:55 PM
Dec 21
46 °FMostly cloudy.17 mph82%30.15 "HgN/A
7:25 PM46 °FMostly cloudy.18 mph87%30.15 "HgN/A
6:55 PM46 °FOvercast.16 mph82%30.18 "HgN/A
6:25 PM46 °FMostly cloudy.16 mph76%30.18 "HgN/A
5:55 PM46 °FOvercast.16 mph82%30.18 "HgN/A
5:25 PM46 °FOvercast.15 mph82%30.18 "HgN/A
4:55 PM46 °FOvercast.16 mph82%30.18 "HgN/A
4:25 PM46 °FCloudy.15 mph82%30.18 "HgN/A
3:55 PM46 °FPartly sunny.17 mph82%30.21 "HgN/A
3:25 PM46 °FMostly cloudy.17 mph82%30.21 "HgN/A
2:55 PM45 °FMore clouds than sun.16 mph87%30.21 "HgN/A
2:25 PM45 °FCloudy.15 mph87%30.24 "HgN/A
1:55 PM45 °FMore clouds than sun.14 mph87%30.24 "HgN/A
1:25 PM45 °FMostly cloudy.16 mph87%30.24 "HgN/A
12:55 PM45 °FMostly cloudy.16 mph81%30.27 "HgN/A
12:25 PM43 °FMore clouds than sun.13 mph87%30.27 "HgN/A
11:55 AM43 °FMore clouds than sun.14 mph87%30.30 "HgN/A
11:25 AM43 °FBroken clouds.14 mph93%30.30 "HgN/A
10:55 AM43 °FBroken clouds.17 mph93%30.30 "HgN/A
10:25 AM43 °FMostly cloudy.13 mph93%30.33 "HgN/A
9:55 AM43 °FFog.12 mph93%30.33 "Hg6 mi
9:25 AM41 °FFog.14 mph93%30.33 "Hg5 mi
8:55 AM41 °FFog.13 mph93%30.33 "Hg5 mi
8:25 AM41 °FFog.13 mph93%30.33 "Hg5 mi
7:55 AM41 °FFog.12 mph93%30.33 "Hg6 mi
7:25 AM41 °FPartly cloudy.9 mph93%30.33 "HgN/A
6:55 AM41 °FOvercast.10 mph93%30.33 "HgN/A
6:25 AM39 °FMostly cloudy.10 mph93%30.33 "HgN/A
5:55 AM39 °FPassing clouds.9 mph93%30.33 "HgN/A
5:25 AM39 °FPassing clouds.9 mph93%30.33 "HgN/A
4:55 AM39 °FPassing clouds.8 mph93%30.33 "HgN/A
4:25 AM39 °FOvercast.7 mph93%30.33 "HgN/A
3:55 AM39 °FOvercast.6 mph93%30.33 "HgN/A
3:25 AM39 °FPassing clouds.8 mph93%30.33 "HgN/A
2:55 AM41 °FOvercast.9 mph87%30.33 "HgN/A
2:25 AM39 °FPassing clouds.9 mph87%30.33 "HgN/A
1:55 AM39 °FMostly cloudy.8 mph87%30.33 "HgN/A
12:55 AM37 °FPassing clouds.8 mph93%30.30 "HgN/A
12:25 AM39 °FPartly cloudy.8 mph87%30.30 "HgN/A
11:55 PM
Dec 20
37 °FPassing clouds.7 mph93%30.30 "HgN/A
11:25 PM39 °FPassing clouds.8 mph87%30.27 "HgN/A
10:55 PM41 °FPartly cloudy.7 mph81%30.27 "HgN/A
10:25 PM41 °FPartly cloudy.6 mph87%30.24 "HgN/A
9:55 PM41 °FPassing clouds.3 mph81%30.24 "HgN/A
9:25 PM39 °FMostly cloudy.6 mph87%30.21 "HgN/A
Weather by CustomWeather, © 2014

See weather overviewHow to use our weather pages